This is the latest recevied weather packets stored in our database for station/object NorthRyde. If no packets are shown the sender has not sent any weather packets the latest 10 day(s).
| Time | Temp. | Humidity | Pressure | Rain* | Wind** | Luminosity | Snow |
|---|---|---|---|---|---|---|---|
| 1778296060 | 21.67° C | 47% | 1024.3 hPa | 0 mm | - | 538 W/m² | - |
| 1778296003 | 21.67° C | 47% | 1024.3 hPa | 0 mm | - | 540 W/m² | - |
| 1778295938 | 21.67° C | 47% | 1024.3 hPa | 0 mm | - | 540 W/m² | - |
| 1778295878 | 21.11° C | 49% | 1024.3 hPa | 0 mm | - | 540 W/m² | - |
| 1778295818 | 21.11° C | 47% | 1024.2 hPa | 0 mm | - | 541 W/m² | - |
| 1778295759 | 21.11° C | 47% | 1024.4 hPa | 0 mm | - | 547 W/m² | - |
| 1778295699 | 21.11° C | 47% | 1024.4 hPa | 0 mm | - | 547 W/m² | - |
| 1778295641 | 21.11° C | 48% | 1024.3 hPa | 0 mm | - | 550 W/m² | - |
| 1778295578 | 21.11° C | 48% | 1024.4 hPa | 0 mm | - | 550 W/m² | - |
| 1778295517 | 21.11° C | 47% | 1024.3 hPa | 0 mm | - | 552 W/m² | - |
| 1778295458 | 21.11° C | 47% | 1024.4 hPa | 0 mm | - | 554 W/m² | - |
| 1778295398 | 21.67° C | 47% | 1024.4 hPa | 0 mm | - | 554 W/m² | - |
| 1778295337 | 21.67° C | 47% | 1024.4 hPa | 0 mm | - | 555 W/m² | - |
| 1778295278 | 21.67° C | 47% | 1024.4 hPa | 0 mm | - | 555 W/m² | - |
| 1778295218 | 21.67° C | 47% | 1024.4 hPa | 0 mm | - | 557 W/m² | - |
| 1778295157 | 21.67° C | 47% | 1024.4 hPa | 0 mm | - | 557 W/m² | - |
| 1778295098 | 21.67° C | 47% | 1024.4 hPa | 0 mm | - | 555 W/m² | - |
| 1778295038 | 21.67° C | 48% | 1024.5 hPa | 0 mm | - | 557 W/m² | - |
| 1778294984 | 21.11° C | 48% | 1024.5 hPa | 0 mm | - | 559 W/m² | - |
| 1778294950 | 21.11° C | 49% | 1024.5 hPa | 0 mm | - | 559 W/m² | - |
| 1778294914 | 21.11° C | 48% | 1024.5 hPa | 0 mm | - | 563 W/m² | - |
| 1778294890 | 21.11° C | 48% | 1024.6 hPa | 0 mm | - | 563 W/m² | - |
| 1778294727 | 21.11° C | 47% | 1024.6 hPa | 0 mm | - | 563 W/m² | - |
| 1778294664 | 21.67° C | 48% | 1024.5 hPa | 0 mm | - | 563 W/m² | - |
| 1778294595 | 21.67° C | 49% | 1024.6 hPa | 0 mm | - | 563 W/m² | - |
* Rain latest hour (hover to see other rain measurements)
** Current wind speed in m/s (hover to see current wind gust speed)